Change the Weather History Date:

Friday, June 28, 2013

  Actual Average Record
Temperature  
Mean Temperature 84 °F 75 °F  
Max Temperature 101 °F 91 °F 109 °F (2012)
Min Temperature 67 °F 59 °F 48 °F (1992)
Degree Days  
Heating Degree Days 0 0  
Month to date heating degree days 16 19  
Since 1 June heating degree days 16 19  
Since 1 July heating degree days 5506 5559  
Cooling Degree Days 19 10  
Month to date cooling degree days 358 199  
Year to date cooling degree days 499 259  
Since 1 June cooling degree days 358 199  
Growing Degree Days 33 (Base 50)    
Moisture  
Dew Point 51 °F    
Average Humidity 49    
Maximum Humidity 87    
Minimum Humidity 11    
Precipitation  
Precipitation T in 0.06 in 0.64 in (1951)
Month to date precipitation 2.19 2.20  
Year to date precipitation 2.76 7.05  
Sea Level Pressure  
Sea Level Pressure 29.96 in    
Wind  
Wind Speed 9 mph (SE)    
Max Wind Speed 23 mph    
Max Gust Speed 30 mph    
Visibility 9 miles    
Events Thunderstorm    
T = Trace of Precipitation, MM = Missing Value Source: NWS Daily Summary

Daily Weather History Graph

Daily Weather History Graph

Search for Another Location

Airport or City:

Trip Planner

Search our weather history database for the weather conditions in past years. The results will help you decide how hot, cold, wet, or windy it might be!

Date:

Astronomy

Jun. 28, 2013 Rise Set
Actual Time 5:30 AM MDT 8:17 PM MDT
Civil Twilight 4:59 AM MDT 8:49 PM MDT
Nautical Twilight 4:19 AM MDT 9:28 PM MDT
Astronomical Twilight 3:34 AM MDT 10:13 PM MDT
Moon 11:54 PM MDT (6/28) 11:34 AM MDT (6/28)
Length of Visible Light 15h 50m
Length of Day
14h 47m
Waning Gibbous, 65% of the Moon is Illuminated
Jun 28
Waning Gibbous
Jun 29
Last Quarter
Jul 8
New
Jul 15
First Quarter
Jul 22
Full

Hourly Weather History & Observations

Time (MDT) Temp. Heat Index Dew Point Humidity Pressure Visibility Wind Dir Wind Speed Gust Speed Precip Events Conditions
12:53 AM 77.0 °F - 64.0 °F 64% 30.00 in 10.0 mi ESE 5.8 mph - N/A   Clear
1:53 AM 73.9 °F - 66.0 °F 76% 30.01 in 9.0 mi Calm Calm - N/A   Clear
2:53 AM 73.0 °F - 66.0 °F 79% 30.03 in 9.0 mi NW 4.6 mph - N/A   Clear
3:53 AM 71.1 °F - 64.9 °F 81% 30.02 in 8.0 mi Calm Calm - N/A   Clear
4:53 AM 69.1 °F - 64.0 °F 84% 30.02 in 8.0 mi East 5.8 mph - N/A   Clear
5:53 AM 66.9 °F - 62.1 °F 84% 30.03 in 6.0 mi Calm Calm - N/A   Haze
6:53 AM 70.0 °F - 64.0 °F 81% 30.04 in 7.0 mi West 3.5 mph - N/A   Clear
7:53 AM 75.9 °F - 66.0 °F 71% 30.04 in 6.0 mi Calm Calm - N/A   Haze
8:53 AM 82.0 °F 84.1 °F 66.0 °F 58% 30.03 in 8.0 mi SE 4.6 mph - N/A   Clear
9:53 AM 90.0 °F - 50.0 °F 25% 30.00 in 10.0 mi ESE 6.9 mph - N/A   Clear
10:53 AM 93.9 °F - 36.0 °F 13% 29.99 in 10.0 mi SE 9.2 mph 20.7 mph N/A   Clear
11:53 AM 97.0 °F - 35.1 °F 11% 29.97 in 10.0 mi ESE 13.8 mph 20.7 mph N/A   Clear
12:53 PM 99.0 °F - 37.0 °F 12% 29.95 in 10.0 mi SE 10.4 mph 18.4 mph N/A   Clear
1:53 PM 99.0 °F - 37.0 °F 12% 29.93 in 10.0 mi South 9.2 mph 17.3 mph N/A   Clear
2:53 PM 99.0 °F - 35.1 °F 11% 29.90 in 10.0 mi SSE 10.4 mph - N/A   Clear
3:53 PM 100.9 °F - 37.0 °F 11% 29.87 in 10.0 mi South 13.8 mph 19.6 mph N/A   Clear
4:53 PM 99.0 °F - 43.0 °F 15% 29.86 in 10.0 mi SE 9.2 mph - N/A   Clear
5:53 PM 98.1 °F - 45.0 °F 16% 29.86 in 10.0 mi SE 17.3 mph 23.0 mph N/A   Clear
6:53 PM 96.1 °F - 46.9 °F 19% 29.86 in 10.0 mi SE 15.0 mph - N/A   Clear
7:53 PM 91.9 °F - 46.0 °F 21% 29.85 in 10.0 mi SSE 15.0 mph - N/A   Clear
8:53 PM 88.0 °F - 46.0 °F 23% 29.86 in 10.0 mi SSE 12.7 mph - N/A   Clear
9:53 PM 84.9 °F - 48.0 °F 28% 29.90 in 10.0 mi East 6.9 mph - N/A   Partly Cloudy
10:23 PM 84.2 °F - 48.2 °F 29% 30.09 in 10.0 mi SE 9.2 mph - 0.00 in Thunderstorm Partly Cloudy
10:53 PM 84.0 °F - 50.0 °F 31% 29.91 in 10.0 mi SSE 9.2 mph - 0.00 in   Clear
11:53 PM 81.0 °F - 48.9 °F 33% 29.90 in 10.0 mi East 20.7 mph 27.6 mph N/A   Clear